Grizzly Air Cargo 5282


KDEN
Denver International Airport
Denver, Colorado, US
PANC
Ted Stevens Anchorage International Airport
Anchorage, Alaska, US

Activity Log

Date Flight Route Aircraft Duration
No Flights Yet

Route Details

Aircraft Information
Primary: Boeing 727-200F
Backup: Boeing 737-800BCF
Route Data
Distance: 2088nm
Sched. Duration: 5h 34m
Avg. Duration: 0h 00m (-535m)
Times Flown: 0
Recm'd Route: RIKKK4 FISAR BIL J13 GTF J569 DORSE 52N20 RIBIT AKTEX 59N40 JOH WITTI4
Planned Altitude: 40,000ft
Origin Wx: KDEN 051453Z 14011KT 10SM FEW100 FEW140 SCT220 28/04 A3009 RMK AO2 SLP096 T02830044 51008
Dest. Wx: PANC 051453Z 16003KT 10SM SCT100 11/06 A2993 RMK AO2 SLP135 T01060061 58001 $
Notes:

Financial History
Total Freight: 0lbs
Average Load: 0lbs/flt
Fuel Used: 0lbs
Avg. Fuel Used: 0lbs/flt
Fuel Expense: $0
Avg. Fuel Expense: $0
Avg. Fuel Cost: $0/lbs
Total Gross Income: $0
Pilot Pay: $0
Total Expenses: $0
Total Revenue: $0
Average Revenue: $0